Previsão horária em Barlewice

Hoje, 5 Agosto, Quinta-feira

Tempo Temperatura Precipitação Vento Pressão Humidade
00:00 +16°C° 0 mm 1 m/s 756 mmHg 73%
01:00 +16°C° 0 mm 1 m/s 756 mmHg 73%
02:00 +15°C° 0 mm 1 m/s 756 mmHg 75%
03:00 +15°C° 0 mm 2 m/s 755 mmHg 77%
04:00 +15°C° 0 mm 2 m/s 755 mmHg 78%
05:00 +16°C° 0 mm 2 m/s 755 mmHg 74%
06:00 +17°C° 0 mm 2 m/s 755 mmHg 69%
07:00 +18°C° 0 mm 2 m/s 755 mmHg 65%
08:00 +19°C° 0 mm 2 m/s 755 mmHg 58%
09:00 +21°C° 0 mm 3 m/s 755 mmHg 52%
10:00 +22°C° 0 mm 3 m/s 755 mmHg 45%
11:00 +24°C° 0 mm 3 m/s 754 mmHg 43%
12:00 +25°C° 0 mm 4 m/s 754 mmHg 41%
13:00 +25°C° 0 mm 4 m/s 754 mmHg 39%
14:00 +25°C° 0 mm 4 m/s 753 mmHg 42%
15:00 +23°C° 0 mm 4 m/s 753 mmHg 45%
16:00 +22°C° 0 mm 4 m/s 753 mmHg 47%
17:00 +22°C° 0 mm 4 m/s 753 mmHg 52%
18:00 +21°C° 0 mm 4 m/s 752 mmHg 57%
19:00 +20°C° 0 mm 3 m/s 752 mmHg 61%
20:00 +19°C° 0 mm 3 m/s 752 mmHg 64%
21:00 +19°C° 0 mm 3 m/s 752 mmHg 67%
22:00 +18°C° 0 mm 3 m/s 752 mmHg 70%
23:00 +17°C° 0.1 mm 3 m/s 752 mmHg 73%

Amanhã, 6 Agosto, Sexta-feira

Tempo Temperatura Precipitação Vento Pressão Humidade
00:00 +17°C° 0.1 mm 3 m/s 751 mmHg 77%
01:00 +16°C° 0.1 mm 3 m/s 751 mmHg 80%
02:00 +15°C° 0.1 mm 4 m/s 751 mmHg 80%
03:00 +15°C° 0.1 mm 4 m/s 751 mmHg 81%
04:00 +14°C° 0.1 mm 4 m/s 751 mmHg 81%
05:00 +15°C° 0 mm 4 m/s 751 mmHg 76%
06:00 +15°C° 0 mm 4 m/s 750 mmHg 72%
07:00 +15°C° 0 mm 5 m/s 750 mmHg 67%
08:00 +16°C° 0 mm 5 m/s 750 mmHg 63%
09:00 +17°C° 0 mm 5 m/s 750 mmHg 59%
10:00 +19°C° 0 mm 5 m/s 750 mmHg 55%
11:00 +19°C° 0 mm 5 m/s 750 mmHg 56%
12:00 +19°C° 0 mm 5 m/s 750 mmHg 58%
13:00 +19°C° 0 mm 5 m/s 750 mmHg 60%
14:00 +17°C° 0.1 mm 5 m/s 750 mmHg 63%
15:00 +18°C° 0.1 mm 4 m/s 750 mmHg 66%
16:00 +17°C° 0.1 mm 4 m/s 750 mmHg 69%
17:00 +17°C° 0.1 mm 3 m/s 750 mmHg 72%
18:00 +16°C° 0.1 mm 2 m/s 750 mmHg 75%
19:00 +16°C° 0.1 mm 1 m/s 750 mmHg 79%
20:00 +16°C° 0 mm 2 m/s 750 mmHg 78%
21:00 +15°C° 0 mm 2 m/s 750 mmHg 78%
22:00 +14°C° 0 mm 3 m/s 749 mmHg 78%
23:00 +14°C° 0 mm 3 m/s 749 mmHg 79%

Depois de amanhã, 7 Agosto, Sábado

Tempo Temperatura Precipitação Vento Pressão Humidade
00:00 +13°C° 0 mm 3 m/s 749 mmHg 80%
01:00 +13°C° 0 mm 3 m/s 749 mmHg 80%
02:00 +13°C° 0 mm 3 m/s 749 mmHg 82%
03:00 +12°C° 0 mm 3 m/s 749 mmHg 84%
04:00 +12°C° 0 mm 3 m/s 749 mmHg 86%
05:00 +13°C° 0 mm 3 m/s 749 mmHg 79%
06:00 +15°C° 0 mm 4 m/s 749 mmHg 72%
07:00 +18°C° 0 mm 4 m/s 749 mmHg 64%
08:00 +20°C° 0 mm 4 m/s 749 mmHg 56%
09:00 +22°C° 0 mm 4 m/s 749 mmHg 48%
10:00 +25°C° 0 mm 4 m/s 749 mmHg 40%
11:00 +25°C° 0 mm 4 m/s 749 mmHg 40%
12:00 +26°C° 0 mm 4 m/s 749 mmHg 40%
13:00 +27°C° 0 mm 4 m/s 749 mmHg 40%
14:00 +26°C° 0 mm 3 m/s 749 mmHg 44%
15:00 +25°C° 0 mm 3 m/s 750 mmHg 48%
16:00 +25°C° 0 mm 3 m/s 750 mmHg 52%
17:00 +24°C° 0 mm 2 m/s 750 mmHg 56%
18:00 +23°C° 0 mm 2 m/s 750 mmHg 60%
19:00 +22°C° 0 mm 1 m/s 751 mmHg 64%
20:00 +20°C° 0 mm 2 m/s 751 mmHg 66%
21:00 +19°C° 0 mm 2 m/s 751 mmHg 68%
22:00 +19°C° 0 mm 2 m/s 751 mmHg 71%
23:00 +18°C° 0 mm 2 m/s 751 mmHg 72%

8 Agosto, Domingo

Tempo Temperatura Precipitação Vento Pressão Humidade
00:00 +18°C° 0 mm 2 m/s 751 mmHg 73%
01:00 +17°C° 0 mm 3 m/s 751 mmHg 74%
02:00 +18°C° 0 mm 3 m/s 751 mmHg 72%
03:00 +18°C° 0 mm 3 m/s 750 mmHg 71%
04:00 +18°C° 0 mm 3 m/s 750 mmHg 69%
05:00 +18°C° 0.4 mm 3 m/s 750 mmHg 74%
06:00 +18°C° 0.4 mm 2 m/s 750 mmHg 80%
07:00 +19°C° 0.4 mm 1 m/s 750 mmHg 85%
08:00 +19°C° 1.2 mm 1 m/s 750 mmHg 87%
09:00 +19°C° 1.2 mm 1 m/s 750 mmHg 89%
10:00 +19°C° 1.2 mm 1 m/s 749 mmHg 90%
11:00 +19°C° 0.2 mm 2 m/s 750 mmHg 85%
12:00 +20°C° 0.2 mm 4 m/s 750 mmHg 80%
13:00 +21°C° 0.2 mm 5 m/s 751 mmHg 75%
14:00 +22°C° 0 mm 5 m/s 751 mmHg 67%
15:00 +23°C° 0 mm 5 m/s 751 mmHg 59%
16:00 +25°C° 0 mm 5 m/s 752 mmHg 51%
17:00 +23°C° 0 mm 5 m/s 752 mmHg 53%
18:00 +23°C° 0 mm 4 m/s 753 mmHg 56%
19:00 +22°C° 0 mm 3 m/s 753 mmHg 59%
20:00 +20°C° 0 mm 3 m/s 753 mmHg 63%
21:00 +19°C° 0 mm 3 m/s 754 mmHg 67%
22:00 +18°C° 0 mm 2 m/s 754 mmHg 71%
23:00 +18°C° 0 mm 3 m/s 754 mmHg 70%

9 Agosto, Segunda-feira

Tempo Temperatura Precipitação Vento Pressão Humidade
00:00 +18°C° 0 mm 3 m/s 755 mmHg 70%
01:00 +17°C° 0 mm 4 m/s 755 mmHg 70%
02:00 +17°C° 0 mm 4 m/s 755 mmHg 71%
03:00 +17°C° 0 mm 4 m/s 755 mmHg 72%
04:00 +17°C° 0 mm 4 m/s 756 mmHg 73%
05:00 +17°C° 0 mm 5 m/s 756 mmHg 70%
06:00 +17°C° 0 mm 5 m/s 756 mmHg 67%
07:00 +19°C° 0 mm 6 m/s 756 mmHg 65%
08:00 +20°C° 0 mm 6 m/s 756 mmHg 60%
09:00 +22°C° 0 mm 6 m/s 756 mmHg 54%
10:00 +23°C° 0 mm 7 m/s 756 mmHg 49%
11:00 +23°C° 0.1 mm 6 m/s 757 mmHg 49%
12:00 +23°C° 0.1 mm 5 m/s 757 mmHg 49%
13:00 +22°C° 0.1 mm 5 m/s 757 mmHg 48%
14:00 +23°C° 0 mm 4 m/s 757 mmHg 47%
15:00 +24°C° 0 mm 3 m/s 757 mmHg 45%
16:00 +24°C° 0 mm 3 m/s 757 mmHg 44%
17:00 +23°C° 0 mm 2 m/s 757 mmHg 48%
18:00 +21°C° 0 mm 2 m/s 758 mmHg 53%
19:00 +20°C° 0 mm 2 m/s 758 mmHg 57%
20:00 +19°C° 0 mm 2 m/s 758 mmHg 61%
21:00 +19°C° 0 mm 2 m/s 758 mmHg 64%
22:00 +19°C° 0 mm 1 m/s 759 mmHg 68%
23:00 +17°C° 0 mm 2 m/s 759 mmHg 68%

10 Agosto, Terça-feira

Tempo Temperatura Precipitação Vento Pressão Humidade
00:00 +17°C° 0 mm 2 m/s 759 mmHg 68%
01:00 +16°C° 0 mm 2 m/s 759 mmHg 68%
02:00 +16°C° 0 mm 2 m/s 759 mmHg 68%
03:00 +16°C° 0 mm 2 m/s 759 mmHg 68%
04:00 +16°C° 0 mm 2 m/s 759 mmHg 68%
05:00 +16°C° 0 mm 3 m/s 759 mmHg 69%
06:00 +17°C° 0 mm 4 m/s 759 mmHg 70%
07:00 +18°C° 0 mm 4 m/s 759 mmHg 71%
08:00 +18°C° 0 mm 4 m/s 759 mmHg 70%
09:00 +18°C° 0 mm 4 m/s 759 mmHg 69%
10:00 +19°C° 0 mm 4 m/s 760 mmHg 68%
11:00 +20°C° 0.4 mm 4 m/s 759 mmHg 65%
12:00 +21°C° 0.4 mm 4 m/s 759 mmHg 61%
13:00 +22°C° 0.4 mm 4 m/s 759 mmHg 58%
14:00 +22°C° 0.7 mm 3 m/s 759 mmHg 58%
15:00 +22°C° 0.7 mm 3 m/s 758 mmHg 59%
16:00 +22°C° 0.7 mm 3 m/s 758 mmHg 59%
17:00 +20°C° 0.3 mm 2 m/s 758 mmHg 65%
18:00 +19°C° 0.3 mm 2 m/s 758 mmHg 71%
19:00 +19°C° 0.3 mm 1 m/s 758 mmHg 77%
20:00 +17°C° 0.3 mm 2 m/s 758 mmHg 81%
21:00 +16°C° 0.3 mm 2 m/s 758 mmHg 85%
22:00 +15°C° 0.3 mm 2 m/s 759 mmHg 89%
23:00 +15°C° 0 mm 2 m/s 759 mmHg 90%
Mostrar mais